Mullan Pass, ID

3:23 AM PDT on May 27, 2018 (GMT -0700)
Mullan Pass

Weather History for KMLP - February, 2013

Change the Weather History Date:

Saturday, February 16, 2013

  Actual Average (K3TH) Record (K3TH)
Temperature  
Mean Temperature 28 °F -  
Max Temperature 34 °F 37 °F 45 °F (1998)
Min Temperature 21 °F 26 °F 17 °F (2001)
Degree Days  
Heating Degree Days 38    
Moisture  
Dew Point 26 °F    
Average Humidity 94    
Maximum Humidity 100    
Minimum Humidity 81    
Precipitation  
Precipitation 0.15 in - - ()
Sea Level Pressure  
Sea Level Pressure 29.90 in    
Wind  
Wind Speed 8 mph (WSW)    
Max Wind Speed 12 mph    
Max Gust Speed 26 mph    
Visibility 4 miles    
Events Fog , Rain , Snow    
Averages and records for this station are not official NWS values.
T = Trace of Precipitation, MM = Missing Value Source: NWS Daily Summary

Daily Weather History Graph

Daily Weather History Graph

Search for Another Location

Airport or City:

Astronomy

Feb. 16, 2013 Rise Set
Actual Time 6:45 AM PST 5:08 PM PST
Civil Twilight 6:14 AM PST 5:39 PM PST
Nautical Twilight 5:38 AM PST 6:15 PM PST
Astronomical Twilight 5:02 AM PST 6:51 PM PST
Moon 9:30 AM PST (2/16) No Moon Set
Length of Visible Light 11h 25m
Length of Day
10h 22m
Waxing Crescent, 40% of the Moon is Illuminated
Feb 16
Waxing Crescent
Feb 17
First Quarter
Feb 25
Full
Mar 4
Last Quarter
Mar 11
New

Hourly Weather History & Observations

Time (PST) Temp. Windchill Dew Point Humidity Pressure Visibility Wind Dir Wind Speed Gust Speed Precip Events Conditions
12:53 AM 28.9 °F 21.9 °F 26.1 °F 89% 30.28 in 10.0 mi SSW 6.9 mph - N/A   Clear
1:53 AM 30.0 °F 23.2 °F 26.1 °F 85% 30.12 in 10.0 mi SSW 6.9 mph - N/A   Clear
2:53 AM 28.9 °F 21.1 °F 26.1 °F 89% 30.09 in 10.0 mi SSW 8.1 mph - N/A   Clear
3:53 AM 28.9 °F 19.2 °F 26.1 °F 89% 30.07 in 10.0 mi SSW 11.5 mph 18.4 mph N/A   Clear
4:53 AM 28.0 °F 18.6 °F 26.1 °F 92% 30.20 in 10.0 mi SSW 10.4 mph 17.3 mph N/A   Clear
5:53 AM 28.0 °F 20.0 °F 25.0 °F 88% 30.18 in 10.0 mi SSW 8.1 mph 17.3 mph N/A   Clear
6:53 AM 27.0 °F 18.0 °F 25.0 °F 92% 30.17 in 10.0 mi South 9.2 mph 16.1 mph N/A   Partly Cloudy
7:14 AM 28.4 °F 18.5 °F 26.6 °F 93% 30.07 in 10.0 mi South 11.5 mph 19.6 mph N/A   Mostly Cloudy
7:36 AM 28.4 °F 19.7 °F 26.6 °F 93% 30.07 in 10.0 mi South 9.2 mph 18.4 mph N/A   Overcast
7:53 AM 28.0 °F 20.8 °F 26.1 °F 92% 30.15 in 10.0 mi SSW 6.9 mph - N/A   Overcast
8:02 AM 28.4 °F 20.4 °F 26.6 °F 93% 30.06 in 10.0 mi South 8.1 mph - N/A   Overcast
8:53 AM 28.9 °F 21.1 °F 27.0 °F 92% 29.99 in - South 8.1 mph - N/A   Overcast
9:53 AM 30.0 °F - 27.0 °F 88% 29.98 in 10.0 mi Calm Calm - N/A   Overcast
10:53 AM 32.0 °F 25.6 °F 28.0 °F 85% 29.96 in - Variable 6.9 mph - N/A   Overcast
11:21 AM 32.0 °F 24.8 °F 28.4 °F 87% 30.01 in 10.0 mi SW 8.1 mph 17.3 mph 0.01 in   Overcast
11:53 AM 34.0 °F 27.2 °F 28.9 °F 82% 29.92 in - SW 8.1 mph - 0.02 in   Overcast
12:40 PM 33.8 °F 28.6 °F 30.2 °F 87% 29.96 in 10.0 mi Variable 5.8 mph - 0.04 in   Overcast
12:53 PM 34.0 °F 28.0 °F 28.9 °F 82% 29.87 in 10.0 mi Variable 6.9 mph - 0.05 in   Overcast
1:53 PM 33.1 °F 25.5 °F 28.9 °F 85% 29.85 in 3.0 mi SW 9.2 mph - 0.06 in Snow Light Snow
2:00 PM 33.8 °F 25.3 °F 28.4 °F 81% 29.92 in 2.5 mi SW 11.5 mph 17.3 mph 0.00 in Snow Light Snow
2:09 PM 32.0 °F 25.6 °F 28.4 °F 87% 29.91 in 4.0 mi Variable 6.9 mph - 0.01 in Snow Light Snow
2:26 PM 30.2 °F 24.3 °F 28.4 °F 93% 29.90 in 1.8 mi Variable 5.8 mph - 0.02 in Snow Light Snow
2:29 PM 30.2 °F 23.4 °F 28.4 °F 93% 29.90 in 1.2 mi SW 6.9 mph - 0.02 in Snow Light Snow
2:49 PM 30.2 °F 23.4 °F 28.4 °F 93% 29.89 in 1.2 mi Variable 6.9 mph - 0.02 in Snow Light Snow
2:53 PM 30.0 °F 23.2 °F 28.9 °F 96% 29.82 in 2.0 mi Variable 6.9 mph - 0.02 in Snow Light Snow
3:06 PM 30.2 °F 25.4 °F 28.4 °F 93% 29.88 in 1.2 mi Variable 4.6 mph - 0.00 in Snow Light Snow
3:18 PM 30.2 °F 21.9 °F 28.4 °F 93% 29.87 in 0.2 mi SSW 9.2 mph 16.1 mph 0.00 in Fog , Snow Snow
3:36 PM 30.2 °F 21.9 °F 28.4 °F 93% 29.86 in 0.5 mi SSW 9.2 mph 20.7 mph 0.00 in Fog , Snow Light Snow
3:44 PM 30.2 °F 22.6 °F 28.4 °F 93% 29.86 in 0.2 mi SSW 8.1 mph 20.7 mph 0.00 in Fog , Snow Snow
3:53 PM 30.0 °F 23.2 °F 28.9 °F 96% 29.79 in 0.2 mi Variable 6.9 mph 18.4 mph 0.00 in Fog , Snow Heavy Snow
4:08 PM 28.4 °F 21.2 °F 28.4 °F 100% 29.85 in 0.2 mi Variable 6.9 mph - 0.00 in Fog , Snow Heavy Snow
4:20 PM 28.4 °F 19.1 °F 28.4 °F 100% 29.84 in 0.2 mi SSW 10.4 mph 18.4 mph 0.00 in Fog , Snow Snow
4:45 PM 28.4 °F 21.2 °F 28.4 °F 100% 29.84 in 0.5 mi Variable 6.9 mph - 0.00 in Fog , Snow Light Snow
4:53 PM 28.9 °F 23.9 °F 28.9 °F 100% 29.91 in 0.2 mi Variable 4.6 mph - 0.00 in Fog , Snow Snow
5:29 PM 28.4 °F 22.2 °F 28.4 °F 100% 29.82 in 0.5 mi Variable 5.8 mph - 0.00 in Fog , Snow Snow
5:42 PM 28.4 °F 19.1 °F 28.4 °F 100% 29.82 in 0.2 mi NW 10.4 mph 17.3 mph 0.00 in Fog , Snow Heavy Snow
5:53 PM 28.0 °F 19.3 °F 27.0 °F 96% 29.91 in 0.2 mi NW 9.2 mph 19.6 mph 0.00 in Fog , Snow Heavy Snow
6:08 PM 26.6 °F 16.8 °F 26.6 °F 100% 29.82 in 0.2 mi NW 10.4 mph 21.9 mph 0.00 in Fog , Snow Snow
6:53 PM 27.0 °F 17.3 °F 26.1 °F 96% 29.91 in 0.5 mi WNW 10.4 mph 20.7 mph 0.00 in Fog , Snow Light Snow
7:09 PM 26.6 °F 19.1 °F 26.6 °F 100% 29.80 in 0.2 mi Variable 6.9 mph 20.7 mph 0.00 in Fog , Snow Light Snow
7:53 PM 26.1 °F 16.2 °F 26.1 °F 100% 29.89 in 0.2 mi WNW 10.4 mph 19.6 mph 0.00 in Fog , Snow Light Snow
8:26 PM 26.6 °F 19.1 °F 24.8 °F 93% 29.79 in 0.5 mi Variable 6.9 mph 26.5 mph 0.00 in Fog , Snow Light Snow
8:30 PM 24.8 °F 14.6 °F 24.8 °F 100% 29.79 in 2.0 mi WNW 10.4 mph 26.5 mph 0.00 in Snow Light Snow
8:37 PM 24.8 °F 16.9 °F 24.8 °F 100% 29.80 in 9.0 mi Variable 6.9 mph 23.0 mph 0.00 in   Mostly Cloudy
8:45 PM 24.8 °F 16.1 °F 24.8 °F 100% 29.80 in 10.0 mi West 8.1 mph 24.2 mph 0.00 in   Mostly Cloudy
8:51 PM 24.8 °F 16.9 °F 24.8 °F 100% 29.80 in 1.5 mi Variable 6.9 mph 24.2 mph 0.00 in   Mostly Cloudy
8:53 PM 25.0 °F 14.2 °F 25.0 °F 100% 29.89 in 0.8 mi WNW 11.5 mph 19.6 mph 0.00 in Snow Light Snow
8:56 PM 26.6 °F 16.8 °F 24.8 °F 93% 29.80 in 0.2 mi WNW 10.4 mph 19.6 mph 0.00 in Fog , Snow Light Snow
9:02 PM 24.8 °F 14.6 °F 24.8 °F 100% 29.79 in 0.5 mi WNW 10.4 mph 23.0 mph 0.00 in Fog , Rain Light Freezing Rain
9:05 PM 24.8 °F 14.6 °F 24.8 °F 100% 29.80 in 1.0 mi NW 10.4 mph 23.0 mph 0.00 in Rain Light Freezing Rain
9:07 PM 24.8 °F 15.3 °F 24.8 °F 100% 29.80 in 2.5 mi NW 9.2 mph 23.0 mph 0.00 in Rain Light Freezing Rain
9:13 PM 24.8 °F 15.3 °F 24.8 °F 100% 29.80 in 1.5 mi NW 9.2 mph 21.9 mph 0.00 in Rain Light Freezing Rain
9:26 PM 24.8 °F 14.0 °F 24.8 °F 100% 29.79 in 2.5 mi WNW 11.5 mph 21.9 mph 0.00 in Rain Light Freezing Rain
9:28 PM 24.8 °F 14.0 °F 23.0 °F 93% 29.79 in 4.0 mi WNW 11.5 mph 21.9 mph 0.00 in   Overcast
9:38 PM 24.8 °F 16.9 °F 23.0 °F 93% 29.79 in 10.0 mi Variable 6.9 mph 23.0 mph 0.00 in   Overcast
9:53 PM 24.1 °F 15.2 °F 21.9 °F 91% 29.88 in 10.0 mi WNW 8.1 mph 23.0 mph 0.00 in   Overcast
10:04 PM 24.8 °F 17.9 °F 21.2 °F 86% 29.79 in 10.0 mi Variable 5.8 mph 24.2 mph N/A   Overcast
10:40 PM 24.8 °F 17.9 °F 21.2 °F 86% 29.78 in 7.0 mi Variable 5.8 mph - 0.00 in Snow Light Snow
10:43 PM 24.8 °F 16.1 °F 21.2 °F 86% 29.78 in 1.8 mi NW 8.1 mph - 0.00 in Snow Light Snow
10:48 PM 24.8 °F 15.3 °F 23.0 °F 93% 29.78 in 0.8 mi NW 9.2 mph - 0.00 in Snow Light Snow
10:51 PM 24.8 °F 16.9 °F 23.0 °F 93% 29.78 in 0.5 mi NNW 6.9 mph - 0.00 in Fog , Snow Light Snow
10:53 PM 24.1 °F 17.0 °F 23.0 °F 96% 29.86 in 0.5 mi Variable 5.8 mph - 0.00 in Fog , Snow Light Snow
11:06 PM 24.8 °F 19.1 °F 24.8 °F 100% 29.78 in 0.2 mi Variable 4.6 mph - 0.00 in Fog , Snow Heavy Snow
11:46 PM 21.2 °F 10.1 °F 21.2 °F 100% 29.78 in 0.2 mi NW 10.4 mph 286.5 mph 0.00 in Fog , Snow Light Snow
11:53 PM 21.9 °F 11.7 °F 21.0 °F 96% 29.86 in 0.8 mi NW 9.2 mph 25.3 mph 0.00 in Snow Light Snow